Location: De Greiden
(52.9496°N, 5.9137°E)
Time: 23:23:25
(UTC+00:00)

SJ 16-02 - Pass Details

Date: 24 January 2021
Orbit: 606 x 616 km, 75.0° (Epoch: 01 March)

Event Time Altitude Azimuth Distance (km) Brightness Sun altitude
Rises 19:51:07 0° 262° (W) 2,873 5.7 -33.4°
Reaches altitude 10° 19:54:30 10° 290° (WNW) 1,971 4.7 -33.9°
Maximum altitude 19:56:38 13° 319° (NW) 1,765 4.2 -34.2°
Enters shadow 19:57:30 13° 332° (NNW) 1,801 4.1 -34.3°
